| time (UTC) | temp C | wind direction | speed KPH | gust KPH | rain 1hr cm | rain 24hr cm | rain mn cm | humidity % | barometer mb |
| 20260505035535 | 13 | 140 | 9.7 | 0.0 | 0.00 | 0.00 | 0.00 | 100 | 1008.8 |
| 20260505035029 | 13 | 138 | 8.0 | 0.0 | 0.00 | 0.00 | 0.00 | 100 | 1008.7 |
| 20260505034523 | 14 | 137 | 8.0 | 0.0 | 0.00 | 0.00 | 0.00 | 100 | 1008.7 |
| 20260505034017 | 13 | 136 | 6.4 | 0.0 | 0.00 | 0.00 | 0.00 | 100 | 1008.6 |
| 20260505033511 | 15 | 136 | 8.0 | 0.0 | 0.00 | 0.00 | 0.00 | 100 | 1008.6 |
| 20260505033005 | 15 | 142 | 8.0 | 0.0 | 0.00 | 0.00 | 0.00 | 100 | 1008.5 |
| 20260505032459 | 15 | 137 | 9.7 | 0.0 | 0.00 | 0.00 | 0.00 | 100 | 1008.4 |
| 20260505031953 | 15 | 141 | 8.0 | 0.0 | 0.00 | 0.00 | 0.00 | 100 | 1008.3 |
| 20260505031447 | 15 | 155 | 6.4 | 0.0 | 0.00 | 0.00 | 0.00 | 100 | 1008.2 |
| 20260505030941 | 15 | 159 | 4.8 | 0.0 | 0.00 | 0.00 | 0.00 | 100 | 1008.2 |
| 20260505030435 | 15 | 156 | 4.8 | 0.0 | 0.00 | 0.00 | 0.00 | 100 | 1008.2 |
| 20260505025929 | 15 | 140 | 6.4 | 17.7 | 0.00 | 0.00 | 0.00 | 100 | 1008.1 |
| 20260505025423 | 15 | 145 | 6.4 | 0.0 | 0.00 | 0.00 | 0.00 | 100 | 1008.1 |
| 20260505024917 | 15 | 138 | 6.4 | 0.0 | 0.00 | 0.00 | 0.00 | 100 | 1008.0 |
| 20260505024411 | 14 | 161 | 6.4 | 0.0 | 0.00 | 0.00 | 0.00 | 100 | 1007.9 |
| 20260505023905 | 13 | 192 | 6.4 | 0.0 | 0.00 | 0.00 | 0.00 | 100 | 1007.8 |
| 20260505023359 | 15 | 129 | 4.8 | 0.0 | 0.00 | 0.00 | 0.00 | 100 | 1007.8 |
| 20260505022853 | 15 | 145 | 4.8 | 0.0 | 0.00 | 0.00 | 0.00 | 100 | 1007.8 |
| 20260505022347 | 15 | 134 | 3.2 | 0.0 | 0.00 | 0.00 | 0.00 | 100 | 1007.8 |
| 20260505021841 | 15 | 164 | 4.8 | 0.0 | 0.00 | 0.00 | 0.00 | 100 | 1007.7 |
| 20260505021335 | 15 | 138 | 4.8 | 0.0 | 0.00 | 0.00 | 0.00 | 100 | 1007.6 |
| 20260505020829 | 15 | 165 | 4.8 | 0.0 | 0.00 | 0.00 | 0.00 | 100 | 1007.6 |
| 20260505020323 | 13 | 188 | 6.4 | 0.0 | 0.00 | 0.00 | 0.00 | 100 | 1007.6 |
| 20260505015817 | 16 | 138 | 1.6 | 0.0 | 0.00 | 0.00 | 0.00 | 100 | 1007.4 |
| 20260505015311 | 16 | 149 | 1.6 | 0.0 | 0.00 | 0.00 | 0.00 | 100 | 1007.4 |
| 20260505014805 | 16 | 142 | 0.0 | 0.0 | 0.00 | 0.00 | 0.00 | 100 | 1007.3 |
| 20260505014259 | 16 | 156 | 0.0 | 0.0 | 0.00 | 0.00 | 0.00 | 100 | 1007.4 |
| 20260505013753 | 16 | 192 | 1.6 | 0.0 | 0.00 | 0.00 | 0.00 | 100 | 1007.4 |
| 20260505013247 | 17 | 123 | 0.0 | 0.0 | 0.00 | 0.00 | 0.00 | 100 | 1007.4 |
| 20260505012741 | 17 | 114 | 1.6 | 0.0 | 0.00 | 0.00 | 0.00 | 100 | 1007.3 |
| 20260505012235 | 17 | 126 | 1.6 | 0.0 | 0.00 | 0.00 | 0.00 | 100 | 1007.3 |
| 20260505011729 | 17 | 132 | 1.6 | 0.0 | 0.00 | 0.00 | 0.00 | 100 | 1007.3 |
| 20260505011223 | 18 | 128 | 0.0 | 0.0 | 0.00 | 0.00 | 0.00 | 100 | 1007.4 |
| 20260505010717 | 18 | 109 | 0.0 | 0.0 | 0.00 | 0.00 | 0.00 | 100 | 1007.5 |
| 20260505010211 | 18 | 66 | 1.6 | 0.0 | 0.00 | 0.00 | 0.00 | 100 | 1007.4 |
| 20260505005705 | 18 | 90 | 0.0 | 0.0 | 0.00 | 0.00 | 0.00 | 100 | 1007.5 |
| 20260505005159 | 18 | 187 | 0.0 | 0.0 | 0.00 | 0.00 | 0.00 | 100 | 1007.6 |
| 20260505004653 | 18 | 251 | 0.0 | 0.0 | 0.00 | 0.00 | 0.00 | 100 | 1007.7 |
| 20260505004147 | 18 | 322 | 3.2 | 0.0 | 0.00 | 0.00 | 0.00 | 100 | 1007.8 |
| 20260505003641 | 18 | 334 | 6.4 | 0.0 | 0.00 | 0.00 | 0.00 | 100 | 1007.8 |
| 20260505003135 | 18 | 309 | 6.4 | 0.0 | 0.00 | 0.00 | 0.00 | 100 | 1007.9 |
| 20260505001053 | 18 | 317 | 6.4 | 0.0 | 0.00 | 0.00 | 0.00 | 100 | 1008.0 |
| 20260505000547 | 18 | 344 | 8.0 | 0.0 | 0.00 | 0.00 | 0.00 | 100 | 1007.9 |
| 20260505000041 | 18 | 337 | 8.0 | 0.0 | 0.00 | 0.00 | 0.00 | 100 | 1008.0 |
| 20260504235535 | 18 | 346 | 11.3 | 0.0 | 0.00 | 0.00 | 0.00 | 100 | 1007.8 |
| 20260504235029 | 19 | 342 | 12.9 | 0.0 | 0.00 | 0.00 | 0.00 | 100 | 1007.7 |
| 20260504234523 | 19 | 340 | 12.9 | 0.0 | 0.00 | 0.00 | 0.00 | 100 | 1007.5 |
| 20260504234017 | 19 | 340 | 12.9 | 0.0 | 0.00 | 0.00 | 0.00 | 100 | 1007.4 |
| 20260504233511 | 19 | 340 | 12.9 | 20.9 | 0.00 | 0.00 | 0.00 | 100 | 1007.3 |
| 20260504233005 | 20 | 346 | 12.9 | 0.0 | 0.00 | 0.00 | 0.00 | 100 | 1007.2 |
| 20260504232459 | 20 | 334 | 9.7 | 27.4 | 0.00 | 0.00 | 0.00 | 100 | 1007.0 |
| 20260504231441 | 23 | 292 | 4.8 | 0.0 | 0.00 | 0.00 | 0.00 | 100 | 1006.6 |
| 20260504230935 | 23 | 311 | 6.4 | 0.0 | 0.00 | 0.00 | 0.00 | 100 | 1006.5 |
| 20260504230429 | 24 | 235 | 3.2 | 0.0 | 0.00 | 0.00 | 0.00 | 100 | 1006.5 |
| 20260504225923 | 25 | 238 | 1.6 | 0.0 | 0.00 | 0.00 | 0.00 | 100 | 1006.5 |
| 20260504225417 | 24 | 249 | 0.0 | 0.0 | 0.00 | 0.00 | 0.00 | 100 | 1006.5 |
| 20260504224911 | 23 | 192 | 0.0 | 0.0 | 0.00 | 0.00 | 0.00 | 100 | 1006.6 |
| 20260504224405 | 23 | 280 | 3.2 | 0.0 | 0.00 | 0.00 | 0.00 | 100 | 1006.6 |
| 20260504223859 | 24 | 274 | 3.2 | 0.0 | 0.00 | 0.00 | 0.00 | 100 | 1006.6 |
| 20260504223353 | 23 | 190 | 3.2 | 0.0 | 0.00 | 0.00 | 0.00 | 100 | 1006.5 |
| 20260504222847 | 23 | 123 | 4.8 | 0.0 | 0.00 | 0.00 | 0.00 | 100 | 1006.5 |
| 20260504222341 | 23 | 141 | 0.0 | 0.0 | 0.00 | 0.00 | 0.00 | 100 | 1006.5 |
| 20260504221835 | 23 | 198 | 0.0 | 0.0 | 0.00 | 0.00 | 0.00 | 100 | 1006.6 |
| 20260504221329 | 23 | 263 | 0.0 | 0.0 | 0.00 | 0.00 | 0.00 | 100 | 1006.7 |
| 20260504220823 | 23 | 183 | 4.8 | 0.0 | 0.00 | 0.00 | 0.00 | 100 | 1006.7 |
| 20260504220317 | 23 | 333 | 1.6 | 0.0 | 0.00 | 0.00 | 0.00 | 100 | 1006.8 |
| 20260504215811 | 23 | 281 | 0.0 | 0.0 | 0.00 | 0.00 | 0.00 | 100 | 1006.9 |
| 20260504215305 | 23 | 314 | 3.2 | 0.0 | 0.00 | 0.00 | 0.00 | 100 | 1007.1 |
| 20260504214759 | 23 | 223 | 4.8 | 0.0 | 0.00 | 0.00 | 0.00 | 100 | 1007.1 |
| 20260504214253 | 23 | 194 | 3.2 | 0.0 | 0.00 | 0.00 | 0.00 | 100 | 1007.2 |
| 20260504213747 | 23 | 220 | 3.2 | 0.0 | 0.00 | 0.00 | 0.00 | 100 | 1007.3 |
| 20260504213241 | 23 | 182 | 8.0 | 0.0 | 0.00 | 0.00 | 0.00 | 100 | 1007.4 |
| 20260504212735 | 23 | 220 | 1.6 | 0.0 | 0.00 | 0.00 | 0.00 | 100 | 1007.4 |
| 20260504212229 | 23 | 167 | 1.6 | 0.0 | 0.00 | 0.00 | 0.00 | 100 | 1007.5 |
| 20260504211723 | 22 | 190 | 8.0 | 0.0 | 0.00 | 0.00 | 0.00 | 100 | 1007.5 |
| 20260504211217 | 22 | 9 | 1.6 | 0.0 | 0.00 | 0.00 | 0.00 | 100 | 1007.5 |
| 20260504210711 | 23 | 127 | 1.6 | 0.0 | 0.00 | 0.00 | 0.00 | 100 | 1007.6 |
| 20260504210205 | 22 | 48 | 4.8 | 0.0 | 0.00 | 0.00 | 0.00 | 100 | 1007.7 |
| 20260504205659 | 23 | 98 | 3.2 | 0.0 | 0.00 | 0.00 | 0.00 | 100 | 1007.7 |
| 20260504205153 | 22 | 305 | 0.0 | 0.0 | 0.00 | 0.00 | 0.00 | 100 | 1007.8 |
| 20260504204647 | 22 | 349 | 4.8 | 0.0 | 0.00 | 0.00 | 0.00 | 100 | 1007.8 |
| 20260504204141 | 22 | 338 | 4.8 | 0.0 | 0.00 | 0.00 | 0.00 | 100 | 1007.8 |
| 20260504203635 | 22 | 11 | 4.8 | 0.0 | 0.00 | 0.00 | 0.00 | 100 | 1007.8 |
| 20260504203129 | 23 | 348 | 9.7 | 0.0 | 0.00 | 0.00 | 0.00 | 100 | 1007.9 |
| 20260504202623 | 22 | 4 | 4.8 | 0.0 | 0.00 | 0.00 | 0.00 | 100 | 1007.8 |
| 20260504202117 | 23 | 334 | 3.2 | 0.0 | 0.00 | 0.00 | 0.00 | 100 | 1007.9 |
| 20260504201611 | 23 | 323 | 0.0 | 0.0 | 0.00 | 0.00 | 0.00 | 100 | 1007.9 |
| 20260504201105 | 22 | 286 | 3.2 | 0.0 | 0.00 | 0.00 | 0.00 | 100 | 1008.1 |
| 20260504200559 | 22 | 312 | 3.2 | 0.0 | 0.00 | 0.00 | 0.00 | 100 | 1008.1 |
| 20260504200053 | 22 | 337 | 9.7 | 0.0 | 0.00 | 0.00 | 0.00 | 100 | 1008.1 |
| 20260504195547 | 23 | 305 | 1.6 | 0.0 | 0.00 | 0.00 | 0.00 | 100 | 1008.1 |
| 20260504195041 | 22 | 338 | 3.2 | 0.0 | 0.00 | 0.00 | 0.00 | 100 | 1008.2 |
| 20260504194535 | 22 | 320 | 6.4 | 0.0 | 0.00 | 0.00 | 0.00 | 100 | 1008.3 |
| 20260504194029 | 22 | 346 | 3.2 | 0.0 | 0.00 | 0.00 | 0.00 | 100 | 1008.3 |
| 20260504193523 | 21 | 184 | 4.8 | 0.0 | 0.00 | 0.00 | 0.00 | 100 | 1008.4 |
| 20260504193017 | 22 | 34 | 3.2 | 0.0 | 0.00 | 0.00 | 0.00 | 100 | 1008.5 |
| 20260504192511 | 21 | 349 | 8.0 | 0.0 | 0.00 | 0.00 | 0.00 | 100 | 1008.5 |
| 20260504192005 | 22 | 321 | 3.2 | 0.0 | 0.00 | 0.00 | 0.00 | 100 | 1008.6 |
| 20260504191459 | 22 | 292 | 1.6 | 0.0 | 0.00 | 0.00 | 0.00 | 100 | 1008.7 |
| 20260504190953 | 22 | 327 | 4.8 | 0.0 | 0.00 | 0.00 | 0.00 | 100 | 1008.7 |
| 20260504190447 | 21 | 331 | 3.2 | 0.0 | 0.00 | 0.00 | 0.00 | 100 | 1008.8 |
| 20260504185941 | 21 | 297 | 4.8 | 0.0 | 0.00 | 0.00 | 0.00 | 100 | 1008.9 |
| 20260504185435 | 21 | 324 | 3.2 | 0.0 | 0.00 | 0.00 | 0.00 | 100 | 1009.0 |
| 20260504184929 | 21 | 328 | 8.0 | 0.0 | 0.00 | 0.00 | 0.00 | 100 | 1009.2 |
| 20260504184423 | 21 | 314 | 0.0 | 0.0 | 0.00 | 0.00 | 0.00 | 100 | 1009.2 |
| 20260504183917 | 21 | 331 | 6.4 | 0.0 | 0.00 | 0.00 | 0.00 | 100 | 1009.3 |
| 20260504183411 | 20 | 336 | 4.8 | 0.0 | 0.00 | 0.00 | 0.00 | 100 | 1009.4 |
| 20260504182905 | 20 | 355 | 6.4 | 0.0 | 0.00 | 0.00 | 0.00 | 100 | 1009.4 |
| 20260504182359 | 20 | 340 | 3.2 | 0.0 | 0.00 | 0.00 | 0.00 | 100 | 1009.5 |
| 20260504181853 | 20 | 28 | 1.6 | 0.0 | 0.00 | 0.00 | 0.00 | 100 | 1009.5 |
| 20260504181347 | 20 | 357 | 6.4 | 0.0 | 0.00 | 0.00 | 0.00 | 100 | 1009.7 |
| 20260504180841 | 20 | 323 | 1.6 | 0.0 | 0.00 | 0.00 | 0.00 | 100 | 1009.8 |
| 20260504180335 | 20 | 306 | 1.6 | 0.0 | 0.00 | 0.00 | 0.00 | 100 | 1009.9 |
| 20260504175829 | 19 | 336 | 3.2 | 0.0 | 0.00 | 0.00 | 0.00 | 100 | 1010.0 |
| 20260504175323 | 18 | 350 | 6.4 | 0.0 | 0.00 | 0.00 | 0.00 | 100 | 1010.0 |
| 20260504174817 | 18 | 346 | 3.2 | 0.0 | 0.00 | 0.00 | 0.00 | 100 | 1010.1 |
| 20260504174311 | 18 | 337 | 3.2 | 0.0 | 0.00 | 0.00 | 0.00 | 100 | 1010.2 |
| 20260504173805 | 18 | 343 | 3.2 | 0.0 | 0.00 | 0.00 | 0.00 | 100 | 1010.2 |
| 20260504173259 | 18 | 25 | 3.2 | 0.0 | 0.00 | 0.00 | 0.00 | 100 | 1010.2 |
| 20260504172753 | 17 | 341 | 6.4 | 0.0 | 0.00 | 0.00 | 0.00 | 100 | 1010.3 |
| 20260504172247 | 18 | 331 | 3.2 | 0.0 | 0.00 | 0.00 | 0.00 | 100 | 1010.3 |
| 20260504171741 | 18 | 6 | 1.6 | 0.0 | 0.00 | 0.00 | 0.00 | 100 | 1010.3 |
| 20260504171235 | 17 | 352 | 0.0 | 0.0 | 0.00 | 0.00 | 0.00 | 100 | 1010.4 |
| 20260504170729 | 17 | 342 | 4.8 | 0.0 | 0.00 | 0.00 | 0.00 | 100 | 1010.5 |
| 20260504170223 | 17 | 343 | 3.2 | 0.0 | 0.00 | 0.00 | 0.00 | 100 | 1010.5 |
| 20260504160111 | 14 | 0 | 4.8 | 0.0 | 0.00 | 0.00 | 0.00 | 100 | 1010.8 |
| 20260504151011 | 11 | 143 | 1.6 | 0.0 | 0.00 | 0.00 | 0.00 | 100 | 1011.2 |
| 20260504150505 | 11 | 176 | 1.6 | 0.0 | 0.00 | 0.00 | 0.00 | 100 | 1011.4 |
| 20260504140859 | 9 | 288 | 0.0 | 0.0 | 0.00 | 0.00 | 0.00 | 100 | 1012.3 |
| 20260504140353 | 8 | 260 | 0.0 | 0.0 | 0.00 | 0.00 | 0.00 | 100 | 1012.3 |
| 20260504130747 | 3 | 187 | 3.2 | 0.0 | 0.00 | 0.00 | 0.00 | 100 | 1013.0 |
| 20260504130241 | 4 | 215 | 0.0 | 0.0 | 0.00 | 0.00 | 0.00 | 100 | 1013.0 |
| 20260504120129 | 5 | 27 | 3.2 | 0.0 | 0.00 | 0.00 | 0.00 | 100 | 1012.5 |
| 20260504110523 | 6 | 107 | 0.0 | 0.0 | 0.00 | 0.00 | 0.00 | 100 | 1012.8 |
| 20260504100411 | 6 | 315 | 4.8 | 0.0 | 0.00 | 0.00 | 0.00 | 100 | 1012.2 |
| 20260504081705 | 12 | 142 | 11.3 | 22.5 | 0.00 | 0.00 | 0.00 | 100 | 1011.5 |
| 20260504081159 | 12 | 139 | 11.3 | 27.4 | 0.00 | 0.00 | 0.00 | 100 | 1011.6 |
| 20260504080653 | 12 | 150 | 9.7 | 27.4 | 0.00 | 0.00 | 0.00 | 100 | 1011.6 |
| 20260504080147 | 12 | 167 | 19.3 | 27.4 | 0.00 | 0.00 | 0.00 | 100 | 1011.6 |
| 20260504050317 | 11 | 162 | 6.4 | 0.0 | 0.00 | 0.00 | 0.00 | 100 | 1012.5 |
| 20260504045811 | 10 | 167 | 6.4 | 0.0 | 0.00 | 0.00 | 0.00 | 100 | 1012.5 |
| 20260504045305 | 9 | 188 | 6.4 | 0.0 | 0.00 | 0.00 | 0.00 | 100 | 1012.5 |
| 20260504044759 | 11 | 160 | 3.2 | 0.0 | 0.00 | 0.00 | 0.00 | 100 | 1012.5 |
| 20260504044253 | 11 | 163 | 6.4 | 0.0 | 0.00 | 0.00 | 0.00 | 100 | 1012.5 |
| 20260504043747 | 10 | 169 | 4.8 | 0.0 | 0.00 | 0.00 | 0.00 | 100 | 1012.5 |
| 20260504043241 | 10 | 200 | 3.2 | 0.0 | 0.00 | 0.00 | 0.00 | 100 | 1012.5 |
| 20260504042735 | 10 | 196 | 1.6 | 0.0 | 0.00 | 0.00 | 0.00 | 100 | 1012.4 |
| 20260504042229 | 10 | 208 | 0.0 | 0.0 | 0.00 | 0.00 | 0.00 | 100 | 1012.4 |
| 20260504041723 | 10 | 188 | 3.2 | 0.0 | 0.00 | 0.00 | 0.00 | 100 | 1012.3 |
| 20260504041217 | 11 | 189 | 6.4 | 0.0 | 0.00 | 0.00 | 0.00 | 100 | 1012.3 |
| 20260504040711 | 12 | 262 | 3.2 | 0.0 | 0.00 | 0.00 | 0.00 | 100 | 1012.3 |
| 20260504040205 | 13 | 223 | 0.0 | 0.0 | 0.00 | 0.00 | 0.00 | 100 | 1012.2 |
| 20260504035659 | 13 | 168 | 0.0 | 0.0 | 0.00 | 0.00 | 0.00 | 100 | 1012.1 |